Simultaneous Nadir Overpasses (SNOs) Predictions

Prediction of SNOs between GOES-14 and NPP Satellite Orbit:

Table of predicted SNOs for the next 14.0 days since TLE Epoch: 12/17/2023
Index Date Time (GOES-14) GOES-14 Lat,Lon NPP Lat,Lon Distance(km) Time Diff (sec)
1 12/18/2023 08:49:32 -0.07,-108.62 0.52,-111.27 302.07 80
2 12/19/2023 08:33:27 -0.06,-108.62 -0.50,-106.74 214.96 80
3 12/20/2023 20:52:42 0.07,-108.60 -0.67,-112.04 391.38 80
4 12/21/2023 20:36:36 0.07,-108.60 0.30,-107.49 125.75 80
5 12/23/2023 08:55:42 -0.07,-108.62 0.86,-112.76 472.15 80
6 12/24/2023 08:39:36 -0.06,-108.62 -0.17,-108.23 44.90 80
7 12/26/2023 20:40:05 0.06,-108.60 -0.02,-108.99 44.60 80
8 12/27/2023 20:23:59 0.05,-108.59 0.96,-104.45 472.32 80
9 12/29/2023 08:43:05 -0.06,-108.61 0.20,-109.71 125.75 80
10 12/30/2023 08:27:00 -0.05,-108.61 -0.84,-105.18 391.29 80
